Skip Page Navigation
NASA JPL Caltech
NASA Logo - Jet Propulsion Laboratory + View the NASA Portal
+ Center for Near-Earth Object Studies
JPL Home Earth Solar System Stars & Galaxies Technology
JPL Solar System Dynamics
BODIES ORBITS EPHEMERIDES TOOLS PHYSICAL DATA DISCOVERY FAQ SITE MAP
JPL Small-Body Database Browser
Search: [ help ]  
58152 Natsoderblom (1988 PF2)
Classification: Main-belt Asteroid          SPK-ID: 2058152
Ephemeris | Orbit Diagram | Orbital Elements | Mission Design | Physical Parameters | Discovery Circumstances | Close-Approach Data ]

[ hide orbit diagram ]

For accurate long-term ephemerides, please instead use our Horizons system.This orbit viewer was implemented using two-body methods, and hence should not be used for determining accurate long-term trajectories (over several years or decades) or planetary encounter circumstances.


[ revert to old Java-based viewer ]

Orbital Elements at Epoch 2459000.5 (2020-May-31.0) TDB
Reference: JPL 15 (heliocentric ecliptic J2000)
 Element Value Uncertainty (1-sigma)   Units 
e .2273600461809918 1.1196e-07  
a 2.521353156812034 8.5394e-09 au
q 1.94809818664066 2.8386e-07 au
i 12.27349480867552 5.4797e-06 deg
node 271.8814414708681 4.3831e-05 deg
peri 23.65035170998745 5.2848e-05 deg
M 3.436776847959911 2.549e-05 deg
tp 2458986.539602633963
(2020-May-17.03960263)
0.00010356 TDB
period 1462.341977413156
4.00
7.4291e-06
2.034e-08
d
yr
n .2461804458604344 1.2507e-09 deg/d
Q 3.094608126983406 1.0481e-08 au
  Orbit Determination Parameters
   # obs. used (total)      947  
   data-arc span      11768 days (32.22 yr)  
   first obs. used      1988-08-12  
   last obs. used      2020-10-31  
   planetary ephem.      DE431  
   SB-pert. ephem.      SB431-N16  
   condition code      0  
   norm. resid. RMS      .50891  
   source      ORB  
   producer      Otto Matic  
   solution date      2020-Nov-12 22:52:08  

Additional Information
 Earth MOID = .938091 au 
 Jupiter MOID = 2.11922 au 
 T_jup = 3.388 
[ show covariance matrix ]

Ephemeris | Orbit Diagram | Orbital Elements | Mission Design | Physical Parameters | Discovery Circumstances | Close-Approach Data ]

Physical Parameter Table
Parameter Symbol Value Units Sigma Reference Notes
absolute magnitude H 15.4   n/a MPO333317  

58152 Natsöderblom           Discovered 1988 Aug. 12 by F. Börngen at Tautenburg.
Swedish theologian Nathan Söderblom (1866-1931), renowned student of comparative religion, was a pioneer of the ecumenical movement. In 1930, he received the Nobel Peace Prize for his international efforts on behalf of peace through church unity.
NOTE: some special characters may not display properly (any characters within {} are an attempt to place the proper accent above a character)
Reference: 20031110/MPCPages.arcLast Updated: 2003-11-12

[ show close-approach data ]
Alternate Designations
 1988 PF2 = 2000 OD51 
Ephemeris | Orbit Diagram | Orbital Elements | Mission Design | Physical Parameters | Discovery Circumstances | Close-Approach Data ]
ABOUT SSD CREDITS/AWARDS PRIVACY/COPYRIGHT GLOSSARY LINKS
FirstGov 2020-Dec-01 12:52 UT
(server date/time)  
NASA Home Page
Site Manager:   Ryan S. Park
Webmaster  Alan B. Chamberlin